Weather in Innokentyevka

Russia / Amur Oblast     49°17′59″N   129°42′03″E
temp.,
°C
wind,
m/s
gust,
m/s
humid.,
%
clouds,
%
prec.,
mm/h
press.,
hPa
HPBL,
m
10 may, mon
mon1000:00+5wnw1193100 0.1 100830
03:00+6wnw1195100 0.3 100919
06:00+5w2397100 0.6 1010106
09:00+6w2494100 1.0 1011204
12:00+7wnw2388100 0.1 1012370
15:00+7w2288100 0.1 1012306
18:00+7w1190100 0.0 101385
21:00+5s2293100 0.0 101423
11 may, tue
tue1100:00+5s229368 0.0 101424
03:00+4s22925 0.0 101513
06:00+4s239047 0.0 101689
09:00+11sse46675 0.0 1015686
12:00+15sse455043 0.0 10141515
15:00+17se5642100 0.0 10121913
18:00+14se71157100 0.0 1012725
21:00+11se81662100 0.0 1011612
12 may, wed
wed1200:00+10se91766100 0.0 1010684
03:00+10se101966100 0.0 1007790
06:00+10se112070100 0.2 1005847
09:00+10se111980100 2.1 10021091
12:00+12sse121874100 0.1 10001396
15:00+13se81472100 1.2 9971377
18:00+11sw71272100 0.9 9971232
21:00+10sw61278100 1.2 999882
13 may, thu
thu1300:00+10wsw71277100 0.3 1001978
03:00+9w6117758 0.3 1003805
06:00+8w512730 0.0 1005683
09:00+14wnw611500 0.0 10061156
12:00+19wnw511310 0.0 10062469
15:00+22w5102491 0.0 10043282
18:00+18nnw5844100 0.0 1005445
21:00+14s4449100 0.0 100560
14 may, fri
fri1400:00+12ssw3753100 0.0 1005101
03:00+12ssw41149100 0.0 1005237
06:00+11se3567100 0.0 1005107
09:00+18sse584951 0.0 1002894
12:00+22s71238100 0.0 9982254
15:00+24s71337100 0.0 9932569
18:00+18ssw81569100 0.5 9911348
21:00+11wnw101382100 4.4 994861